Location: Le Domaine
(47.0333°N, 76.5361°W)
Time: 05:32:26
(UTC-05:00)

Courier 1B Rocket - All Passes

Search period start: 12 November 2019 00:00
Search period end: 22 November 2019 00:00
Orbit: 920 x 1202 km, 28.2° (Epoch: 12 November)

Date Brightness Start Highest point End Pass type
(mag) Time Alt. Az. Time Alt. Az. Time Alt. Az.
12 Nov - 18:11:58 10° SSW 18:16:22 16° S 18:20:47 10° SE visible
12 Nov - 20:03:52 10° SW 20:08:46 18° S 20:13:37 10° SE visible
12 Nov - 21:58:28 10° SW 22:01:02 12° SSW 22:03:35 10° S visible
13 Nov - 17:12:02 10° SSW 17:15:34 14° SSE 17:19:09 10° SE visible
13 Nov - 19:02:57 10° SW 19:07:55 18° S 19:12:53 10° SE visible
13 Nov - 20:56:20 10° SW 21:00:17 15° SSW 21:04:11 10° SSE visible
14 Nov - 16:13:13 10° S 16:14:50 11° SSE 16:16:28 10° SE daylight
14 Nov - 18:02:18 10° SSW 18:07:05 18° S 18:11:54 10° SE visible
14 Nov - 19:54:53 10° SW 19:59:28 17° S 20:04:04 10° SSE visible
15 Nov - 17:02:00 10° SSW 17:06:16 16° SSE 17:10:35 10° SE visible
15 Nov - 18:53:46 10° SW 18:58:38 18° S 19:03:32 10° SE visible
15 Nov - 20:48:14 10° SW 20:50:57 12° SSW 20:53:40 10° S visible
16 Nov - 16:02:12 10° S 16:05:30 13° SSE 16:08:51 10° SE daylight
16 Nov - 17:52:57 10° SW 17:57:48 18° S 18:02:44 10° SE visible
16 Nov - 19:46:14 10° SW 19:50:10 15° SSW 19:54:07 10° SSE visible
17 Nov - 15:03:59 10° SSE 15:04:48 10° SSE 15:05:36 10° SSE daylight
17 Nov - 16:52:26 10° SSW 16:56:59 17° S 17:01:38 10° SE visible
17 Nov - 18:44:53 10° SW 18:49:22 17° S 18:53:53 10° SSE visible
18 Nov - 15:52:16 10° SSW 15:56:12 15° SSE 16:00:16 10° SE daylight
18 Nov - 17:43:52 10° SW 17:48:32 18° S 17:53:17 10° SE visible
18 Nov - 19:38:17 10° SW 19:40:51 12° SSW 19:43:25 10° S visible
19 Nov - 14:52:37 10° S 14:55:30 13° SSE 14:58:25 10° SE daylight
19 Nov - 16:43:10 10° SW 16:47:43 17° S 16:52:25 10° SE daylight
19 Nov - 18:36:22 10° SW 18:40:04 14° SSW 18:43:50 10° SSE visible
20 Nov - 15:42:45 10° SSW 15:46:56 16° S 15:51:17 10° SE daylight
20 Nov - 17:35:05 10° SW 17:39:16 16° S 17:43:33 10° SSE visible
21 Nov - 14:42:41 10° SSW 14:46:13 14° SSE 14:49:51 10° SE daylight
21 Nov - 16:34:11 10° SW 16:38:29 17° S 16:42:55 10° SSE daylight
21 Nov - 18:28:41 10° SW 18:30:46 11° SSW 18:32:52 10° S visible
